User: anonymous   Login
Location: ??????
(30.5519°N, 47.7720°E)
Time: 10:44:43
(UTC+00:00)
Language:

OAO 1 - Orbit

View from above orbital plane
View from above orbital plane
View from above satellite
View from above satellite

Ground track
Ground track

The orbit data is extracted from the following two-line orbital elements,

1  2142U 66031A   21102.70504962 -.00000025  00000-0 -19941-5 0  9992
2  2142  35.0450 222.4000 0007442 235.1612 124.8375 14.33896829879811
Epoch (UTC): 12 April 2021 16:55:16
Eccentricity: 0.0007442
inclination: 35.0450°
perigee height: 773 km
apogee height: 784 km
right ascension of ascending node: 222.4000°
argument of perigee: 235.1612°
revolutions per day: 14.33896829
mean anomaly at epoch: 124.8375°
orbit number at epoch: 87981

The dashed part of the orbit path shows where the satellite is in the earth's shadow,  

DLR